Content
SEND FEEDBACK

Daily
Averages
Monthly
Summary
United States of America

WEST PARK, FLORIDA


Home > North America > United States > Florida
Elevation: 12 feet     Latitude: 27 58N     Longitude: 082 32W

WEATHER
 
SELECT A DAY
Number of Records: 187,197;   Date Range: 1/1/95 - 7/29/14
 
SHARE

PRINT THIS DATA

[ ← Previous Day ]
WEATHER ALMANAC - JANUARY 23, 2013
[ Next Day → ]
[ °C ]   °F
Weather ElementAverageHighLow
Temperature57.7 °F70 °F (3:53 pm)48 °F (6:53 am)
Dewpoint34.7 °F41 °F (8:53 pm)28.9 °F (10:53 am)
Humidity45.2 %69 % (2:53 am)23 % (4:53 pm)
Barometer30.33 in30.39 in (9:53 am)30.29 in (3:53 pm)
Wind Speed5.4 mph10.4 mph (5:53 am)
Wind Gust17.3 mph (1:53 pm)
Weather ElementAverage
Visibility10 mi
Wind DirectionSSE (167.4 °)

Weather ElementTotal
Precipitation---
Heating Degree Days6 (Base 65)
Growing Degree Days9 (Base 50)
Averaged from 23 records on January 23, 2013
WEATHER CONDITIONS BREAKOUT
WIND DIRECTION BREAKOUT
WEATHER BY HOUR - JANUARY 23, 2013
[ °C ]   °F
Local TimeTemperatureDewpointHumidityBarometerVisibilityWind DirectionWind SpeedGust SpeedPrecipitationEventsConditions
1:53 AM51.1 °F37.9 °F61 %30.30 in10.0 miNorth (360°)3.5 mphMostly Cloudy
2:53 AM48.9 °F39.0 °F69 %30.30 in10.0 miNorth (360°)3.5 mphScattered Clouds
3:53 AM50.0 °F39.0 °F66 %30.31 in10.0 miNorth (10°)4.6 mphPartly Cloudy
4:53 AM50.0 °F35.1 °F57 %30.32 in10.0 miNNE (20°)5.8 mphPartly Cloudy
5:53 AM50.0 °F30.0 °F46 %30.33 in10.0 miNNE (30°)10.4 mphPartly Cloudy
6:53 AM48.0 °F30.9 °F52 %30.35 in10.0 miNE (40°)3.5 mphPartly Cloudy
7:53 AM48.0 °F30.9 °F52 %30.37 in10.0 miNE (40°)5.8 mphPartly Cloudy
8:53 AM52.0 °F30.0 °F43 %30.38 in10.0 miNE (50°)5.8 mphPartly Cloudy
9:53 AM57.9 °F30.0 °F35 %30.39 in10.0 miENE (60°)5.8 mphPartly Cloudy
10:53 AM62.1 °F28.9 °F29 %30.39 in10.0 miNE (40°)6.9 mphPartly Cloudy
11:53 AM66.0 °F30.0 °F26 %30.37 in10.0 miNorth (360°)4.6 mphPartly Cloudy
12:53 PM68.0 °F32.0 °F26 %30.33 in10.0 miNorth (350°)10.4 mphPartly Cloudy
1:53 PM68.0 °F32.0 °F26 %30.30 in10.0 miNorth (360°)8.1 mph17.3 mphPartly Cloudy
2:53 PM69.1 °F30.9 °F24 %30.30 in10.0 miNNE (20°)6.9 mphClear
3:53 PM70.0 °F30.9 °F24 %30.29 in10.0 miNorth (350°)6.9 mphPartly Cloudy
4:53 PM69.1 °F30.0 °F23 %30.29 in10.0 miNorth (350°)5.8 mphPartly Cloudy
5:53 PM64.0 °F37.0 °F37 %30.31 in10.0 miNNW (330°)8.1 mphPartly Cloudy
6:53 PM59.0 °F39.0 °F48 %30.32 in10.0 miNorth (350°)8.1 mphPartly Cloudy
7:53 PM57.0 °F39.9 °F53 %30.33 in10.0 miNorth (350°)6.9 mphClear
8:53 PM55.9 °F41.0 °F57 %30.34 in10.0 miNNE (20°)3.5 mphClear
9:53 PM55.0 °F41.0 °F59 %30.33 in10.0 miCalmClear
10:53 PM54.0 °F41.0 °F62 %30.34 in10.0 miCalmClear
11:53 PM53.1 °F41.0 °F64 %30.33 in10.0 miCalmClear
Hourly data recorded from KTPA, located miles away from West Park, Florida







STORIES FROM OUR PARTNERS